Weather History for Hermiston, OR

Change the Weather History Date:

Saturday, January 26, 2013

  Actual Average Record
Temperature  
Mean Temperature 34 °F -  
Max Temperature 37 °F 41 °F 66 °F (2003)
Min Temperature 30 °F 25 °F -31 °F (1957)
Degree Days  
Heating Degree Days 30    
Moisture  
Dew Point 33 °F    
Average Humidity 96    
Maximum Humidity 100    
Minimum Humidity 89    
Precipitation  
Precipitation 0.03 in - - ()
Sea Level Pressure  
Sea Level Pressure 29.97 in    
Wind  
Wind Speed 3 mph (South)    
Max Wind Speed 8 mph    
Max Gust Speed -    
Visibility 2 miles    
Events Fog , Rain    
Averages and records for this station are not official NWS values.
T = Trace of Precipitation, MM = Missing Value Source: NWS Daily Summary

Daily Weather History Graph

Daily Weather History Graph

Search for Another Location

Airport:

Trip Planner

Search our weather history database for the weather conditions in past years. The results will help you decide how hot, cold, wet, or windy it might be!

Date:

Astronomy

Jan. 26, 2013 Rise Set
Actual Time 7:25 AM PST 4:54 PM PST
Civil Twilight 6:52 AM PST 5:27 PM PST
Nautical Twilight 6:16 AM PST 6:03 PM PST
Astronomical Twilight 5:41 AM PST 6:38 PM PST
Moon 4:57 PM PST 6:44 AM PST
Length of Visible Light 10h 34m
Length of Day
9h 29m
Full, 100% of the Moon is Illuminated
Jan 26
Full
Jan 26
Full
Feb 3
Last Quarter
Feb 9
New
Feb 17
First Quarter

Hourly Weather History & Observations

Time (PST) Temp. Windchill Dew Point Humidity Pressure Visibility Wind Dir Wind Speed Gust Speed Precip Events Conditions
12:13 AM 33.8 °F - 33.8 °F 100% 29.98 in 3.0 mi Calm Calm - 0.00 in Rain Light Rain
12:24 AM 33.8 °F - 33.8 °F 100% 29.98 in 2.5 mi Calm Calm - 0.00 in Rain Light Rain
12:53 AM 34.0 °F 28.8 °F 32.0 °F 92% 29.99 in 2.5 mi South 5.8 mph - 0.01 in   Overcast
1:13 AM 33.8 °F 27.0 °F 33.8 °F 100% 29.97 in 2.5 mi South 8.1 mph - 0.01 in Rain Rain
1:16 AM 33.8 °F 27.0 °F 32.0 °F 93% 29.97 in 2.5 mi South 8.1 mph - 0.01 in Rain Light Rain
1:21 AM 33.8 °F 27.7 °F 32.0 °F 93% 29.96 in 2.5 mi SSE 6.9 mph - 0.01 in Rain Light Rain
1:37 AM 33.8 °F 28.6 °F 32.0 °F 93% 29.96 in 2.5 mi SSE 5.8 mph - 0.02 in Rain Light Rain
1:50 AM 33.8 °F 29.6 °F 33.8 °F 100% 29.96 in 3.0 mi SE 4.6 mph - 0.02 in Rain Light Rain
1:53 AM 33.1 °F 30.0 °F 33.1 °F 100% 29.97 in 3.0 mi ESE 3.5 mph - 0.02 in Rain Light Rain
2:53 AM 33.1 °F 30.0 °F 32.0 °F 96% 29.97 in 2.0 mi North 3.5 mph - 0.00 in   Overcast
2:59 AM 33.8 °F 30.8 °F 32.0 °F 93% 29.96 in 1.0 mi North 3.5 mph - N/A   Overcast
3:07 AM 33.8 °F 29.6 °F 32.0 °F 93% 29.95 in 0.8 mi North 4.6 mph - N/A   Overcast
3:14 AM 33.8 °F - 32.0 °F 93% 29.96 in 1.0 mi Calm Calm - N/A   Mist
3:37 AM 33.8 °F 28.6 °F 32.0 °F 93% 29.94 in 0.8 mi North 5.8 mph - N/A   Mist
3:53 AM 32.0 °F 26.4 °F 30.9 °F 96% 29.96 in 0.2 mi North 5.8 mph - N/A Fog Fog
4:53 AM 32.0 °F 27.5 °F 30.9 °F 96% 29.97 in 0.2 mi West 4.6 mph - N/A Fog Fog
5:19 AM 33.8 °F 30.8 °F 32.0 °F 93% 29.95 in 0.5 mi WSW 3.5 mph - N/A Fog Fog
5:49 AM 32.0 °F 28.7 °F 32.0 °F 100% 29.95 in 0.5 mi SSW 3.5 mph - N/A Fog Fog
5:53 AM 32.0 °F 28.7 °F 32.0 °F 100% 29.97 in 0.5 mi SSW 3.5 mph - N/A Fog Fog
6:53 AM 33.1 °F 27.7 °F 32.0 °F 96% 29.98 in 0.2 mi SW 5.8 mph - N/A Fog Fog
7:53 AM 33.1 °F 30.0 °F 33.1 °F 100% 29.98 in 0.2 mi SW 3.5 mph - N/A Fog Fog
8:53 AM 33.1 °F - 33.1 °F 100% 29.99 in 0.2 mi Calm Calm - N/A Fog Fog
9:53 AM 34.0 °F - 33.1 °F 96% 29.99 in 0.2 mi Calm Calm - N/A Fog Fog
10:53 AM 34.0 °F - 34.0 °F 100% 29.99 in 0.5 mi Calm Calm - N/A Fog Fog
11:51 AM 35.6 °F - 33.8 °F 93% 29.96 in 1.5 mi Calm Calm - N/A   Overcast
11:53 AM 35.1 °F - 34.0 °F 96% 29.97 in 1.8 mi Calm Calm - N/A   Overcast
12:11 PM 35.6 °F 32.8 °F 33.8 °F 93% 29.96 in 0.5 mi NW 3.5 mph - N/A Fog Fog
12:38 PM 35.6 °F - 33.8 °F 93% 29.95 in 2.0 mi Calm Calm - N/A   Overcast
12:46 PM 35.6 °F - 33.8 °F 93% 29.95 in 3.0 mi Calm Calm - N/A   Overcast
12:53 PM 35.1 °F - 35.1 °F 100% 29.96 in 2.0 mi Calm Calm - N/A   Overcast
1:01 PM 35.6 °F - 35.6 °F 100% 29.95 in 1.5 mi Calm Calm - N/A   Overcast
1:17 PM 35.6 °F - 35.6 °F 100% 29.94 in 3.0 mi Calm Calm - N/A   Overcast
1:53 PM 36.0 °F - 35.1 °F 97% 29.95 in 3.0 mi Calm Calm - N/A   Overcast
2:53 PM 37.0 °F - 34.0 °F 89% 29.96 in 6.0 mi Calm Calm - N/A   Overcast
3:53 PM 37.0 °F - 35.1 °F 93% 29.96 in 5.0 mi Calm Calm - N/A   Overcast
4:53 PM 35.1 °F 32.2 °F 33.1 °F 92% 29.96 in 5.0 mi ENE 3.5 mph - N/A   Overcast
5:53 PM 35.1 °F 32.2 °F 33.1 °F 92% 29.98 in 5.0 mi NE 3.5 mph - N/A   Overcast
6:53 PM 35.1 °F - 33.1 °F 92% 29.99 in 4.0 mi Calm Calm - N/A   Overcast
7:14 PM 33.8 °F - 33.8 °F 100% 29.98 in 1.8 mi Calm Calm - N/A   Overcast
7:28 PM 33.8 °F 30.8 °F 33.8 °F 100% 29.98 in 0.5 mi South 3.5 mph - N/A Fog Fog
7:53 PM 34.0 °F - 34.0 °F 100% 30.01 in 0.5 mi Calm Calm - N/A Fog Fog
8:53 PM 33.1 °F - 33.1 °F 100% 30.01 in 0.2 mi Calm Calm - N/A Fog Fog
9:53 PM 33.1 °F 28.7 °F 32.0 °F 96% 30.02 in 0.5 mi SSE 4.6 mph - N/A Fog Fog
10:53 PM 32.0 °F 28.7 °F 32.0 °F 100% 30.04 in 0.5 mi SSE 3.5 mph - N/A Fog Fog
11:53 PM 30.9 °F 26.2 °F 30.9 °F 100% 30.04 in 0.5 mi South 4.6 mph - N/A Fog Light Freezing Fog